This demonstration page uses our WeatherBlox Daily Observations layout. Learn more.

Left ArrowRight Arrow

44.8408, -93.29828

Hourly Observations for July 1, 2021

Temp ( °F °C ) Dew Point ( °F °C ) Humidity (%) Winds ( mph kmh ) Pressure ( in mb ) Visibility ( mi km ) Precip ( " mm )
12:53 am 00:53 Clear 75 23.9 59 15 58 58 Calm 30.04 1017 10 16 0.00 0.00
1:53 am 01:53 Clear 74 23.3 59 15 60 60 WSW 3 6 30.04 1017 10 16 0.00 0.00
2:53 am 02:53 Clear 72 22.2 60 15.6 66 66 Calm 30.04 1017 10 16 0.00 0.00
3:53 am 03:53 Clear 71 21.7 60 15.6 68 68 Calm 30.04 1017 10 16 0.00 0.00
4:53 am 04:53 Partly Cloudy 70 21.1 63 17.2 79 79 Calm 30.05 1018 10 16 0.00 0.00
5:53 am 05:53 Mostly Cloudy 69 20.6 62 16.7 78 78 Calm 30.06 1018 8 13 0.00 0.00
6:53 am 06:53 Mostly Cloudy 71 21.7 62 16.7 73 73 Calm 30.07 1018 9 14 0.00 0.00
7:53 am 07:53 Partly Cloudy 74 23.3 62 16.7 67 67 NNW 5 7 30.06 1018 8 13 0.00 0.00
8:53 am 08:53 Partly Cloudy 77 25 63 17.2 62 62 Calm 30.07 1018 8 13 0.00 0.00
9:53 am 09:53 Mostly Cloudy 79 26.1 63 17.2 58 58 Calm 30.07 1018 8 13 0.00 0.00
10:53 am 10:53 Partly Cloudy 84 28.9 62 16.7 48 48 Calm 30.07 1018 10 16 0.00 0.00
11:53 am 11:53 Mostly Cloudy 83 28.3 59 15 44 44 Calm 30.07 1018 10 16 0.00 0.00
12:53 pm 12:53 Partly Cloudy 84 28.9 62 16.7 48 48 E 14 22 30.06 1018 10 16 0.00 0.00
1:53 pm 13:53 Cloudy 84 28.9 60 15.6 44 44 Calm 30.05 1018 10 16 0.00 0.00
2:53 pm 14:53 Mostly Cloudy 86 30 61 16.1 43 43 NNE 5 7 30.04 1017 10 16 0.00 0.00
3:53 pm 15:53 Mostly Cloudy 86 30 59 15 40 40 NE 9 15 30.04 1017 10 16 0.00 0.00
4:53 pm 16:53 Mostly Cloudy 85 29.4 60 15.6 43 43 ENE 10 17 30.04 1017 10 16 0.00 0.00
5:53 pm 17:53 Mostly Cloudy 84 28.9 60 15.6 44 44 NE 9 15 30.05 1018 10 16 0.00 0.00
6:53 pm 18:53 Mostly Cloudy 85 29.4 60 15.6 43 43 ENE 8 13 30.05 1018 10 16 0.00 0.00
7:53 pm 19:53 Partly Cloudy 82 27.8 58 14.4 44 44 ENE 9 15 30.05 1018 10 16 0.00 0.00
8:53 pm 20:53 Mostly Sunny 80 26.7 58 14.4 47 47 ENE 10 17 30.06 1018 10 16 0.00 0.00
9:53 pm 21:53 Mostly Clear 77 25 59 15 54 54 E 12 19 30.08 1019 10 16 0.00 0.00
10:53 pm 22:53 Mostly Clear 74 23.3 57 13.9 56 56 E 10 17 30.09 1019 10 16 0.00 0.00
11:53 pm 23:53 Mostly Clear 73 22.8 52 11.1 48 48 E 10 17 30.09 1019 10 16 0.00 0.00

Powered by AerisWeather